Vertical_Velocity
-3 -4 -5 -3 -5 -6 -6 -4 -4 -6 -6 -7 -7 -7 -6 -7 -7 -6 -4 -2 -0 0 -0 -1 -0 -0 -1 -1 -0 1 1 2 2 2 2 2 2 2 1 -0 -2 -3 -3 -3 -2 -2 -2 -2 -2 -1 -1 0 0 0 -0 -0 0 1 1 1 3 5 7 5 3 2 1 2 2 3 4 3 0 0 6 14 12 7 3 1 -2 -4 -5 -5 -4 -3
-4 -5 -5 -3 -4 -6 -6 -4 -4 -4 -4 -6 -7 -7 -6 -8 -9 -9 -8 -5 -2 0 0 -0 -1 -1 -2 -2 -1 -1 0 1 2 2 2 2 2 2 2 1 -0 -1 -2 -2 -2 -2 -2 -2 -2 -2 -1 -0 0 1 0 -0 0 0 1 1 1 1 3 4 3 3 3 3 3 3 3 2 1 1 4 11 10 6 2 1 -1 -2 -3 -2 -1 -2
-5 -6 -4 -4 -4 -5 -5 -6 -6 -4 -3 -6 -7 -7 -7 -7 -8 -8 -8 -8 -6 -3 -2 -1 -1 -2 -3 -3 -2 -2 -1 0 1 2 2 3 3 3 2 1 1 0 -0 -1 -1 -1 -1 -2 -2 -2 -2 -1 -0 0 1 0 0 1 1 1 1 0 0 1 2 2 2 5 5 4 2 1 1 1 3 9 9 6 2 1 -0 -2 -1 4 4 1
-4 -5 -4 -5 -6 -5 -2 -6 -7 -6 -4 -7 -8 -7 -6 -7 -8 -8 -7 -7 -7 -7 -6 -3 -2 -2 -3 -4 -4 -3 -1 -1 -0 1 2 3 4 4 3 2 1 0 0 -0 -1 -1 -1 -1 -1 -1 -2 -1 -1 -0 0 0 1 1 1 2 1 1 0 1 2 2 3 5 5 3 2 2 3 4 6 8 7 6 4 4 2 1 2 10 11 7
-3 -3 -2 -6 -8 -8 -4 -5 -6 -6 -6 -8 -8 -8 -8 -8 -8 -9 -9 -8 -8 -8 -8 -6 -4 -3 -2 -4 -5 -4 -2 -2 -1 -1 1 2 3 4 4 2 1 -0 -0 -1 -1 -1 -2 -1 -1 -1 -1 -2 -2 -1 -1 -0 0 1 1 2 2 1 1 1 2 3 4 6 5 3 2 3 6 8 10 9 7 5 5 8 7 5 4 9 10 7
-3 -2 -1 -3 -5 -6 -6 -6 -5 -5 -7 -7 -6 -6 -7 -6 -7 -8 -10 -9 -9 -10 -10 -9 -8 -6 -5 -5 -5 -4 -2 -2 -2 -2 -2 0 2 4 6 6 4 1 -1 -2 -2 -2 -2 -1 -1 -1 -1 -2 -2 -2 -2 -1 -1 -0 1 1 1 1 1 1 2 4 5 5 5 4 4 4 5 6 8 7 6 5 6 10 9 5 2 5 6 5
-5 -2 -1 -3 -3 -3 -5 -5 -3 -1 -3 -4 -4 -4 -5 -4 -5 -6 -7 -7 -9 -11 -12 -13 -12 -11 -9 -8 -6 -4 -3 -2 -3 -3 -3 -2 -0 2 6 9 9 6 0 -2 -3 -2 -2 -1 -1 -1 -2 -2 -2 -2 -2 -2 -2 -1 -0 0 1 1 1 1 2 3 4 3 3 3 4 4 3 3 3 3 4 5 7 9 7 4 0 1 1 1
-8 -5 -2 -5 -5 -5 -5 -4 -2 0 0 -1 -2 -5 -8 -7 -6 -5 -6 -7 -7 -8 -10 -13 -14 -14 -12 -10 -8 -6 -3 -3 -3 -4 -4 -4 -3 -2 1 6 9 9 4 -1 -2 -2 -1 -1 -1 -1 -2 -2 -1 -1 -1 -2 -2 -2 -1 -0 0 1 1 2 2 2 3 2 2 2 3 4 4 4 3 4 5 7 8 8 7 5 2 -1 -2 -3
-8 -8 -5 -4 -6 -8 -8 -6 -3 -2 -4 -2 -1 -3 -9 -12 -10 -8 -8 -8 -6 -3 -3 -6 -8 -8 -8 -8 -6 -4 -2 -1 -1 -2 -3 -4 -5 -5 -3 0 3 5 4 1 -0 -1 -1 -1 -2 -2 -2 -2 -1 -1 -1 -2 -2 -2 -2 -1 -1 0 1 2 2 2 2 2 2 2 2 3 4 5 5 6 8 11 11 10 9 8 6 1 -3 -4
-5 -6 -7 -4 -3 -5 -9 -9 -6 -4 -8 -8 -4 -1 -4 -8 -9 -8 -10 -10 -6 -2 -1 -0 -0 -1 -4 -4 -3 -1 -0 -1 -1 1 2 -0 -1 -2 -3 -2 -1 -0 1 2 2 1 0 -2 -3 -3 -3 -3 -2 -1 -1 -1 -2 -2 -3 -3 -2 -1 -0 1 1 1 1 1 2 2 2 3 3 4 5 7 11 14 16 13 12 10 6 1 -2 -4
-3 -4 -6 -5 -3 -2 -5 -7 -7 -6 -8 -11 -8 -4 -1 -3 -3 -4 -6 -9 -10 -9 -8 -5 -2 -2 -5 -7 -6 -3 -3 -4 -4 -3 -0 1 2 2 1 -0 -1 -1 -2 1 3 3 1 -2 -4 -5 -5 -4 -3 -2 -1 -1 -1 -2 -3 -4 -3 -3 -1 1 1 1 0 -0 0 0 1 2 2 3 3 6 11 16 21 20 16 9 2 -1 -3 -4
-3 -4 -5 -4 -3 -2 -3 -5 -4 -3 -3 -7 -8 -7 -4 -0 -1 -3 -4 -6 -10 -13 -16 -13 -9 -7 -7 -7 -7 -6 -5 -4 -3 -3 -4 -3 -1 1 2 1 1 0 -1 -0 1 2 2 -1 -3 -5 -6 -6 -5 -3 -0 -1 -1 -2 -3 -4 -4 -3 1 2 2 0 -1 -1 -2 -1 -1 1 2 2 3 4 6 10 18 21 17 9 2 -0 -2 -3
-2 -3 -5 -3 -2 -2 -4 -5 -4 -3 -1 -1 -3 -4 -5 -2 -3 -5 -6 -5 -6 -9 -14 -14 -13 -10 -9 -8 -6 -4 -2 -2 -1 -1 -3 -4 -3 0 3 3 4 6 7 7 5 3 2 1 -2 -5 -6 -7 -6 -3 0 0 -0 -1 -2 -3 -4 -2 3 6 4 1 -1 -2 -2 -1 -0 1 1 2 2 2 2 4 8 11 10 7 3 2 -0 -2
-3 -4 -4 -4 -3 -4 -5 -5 -4 -2 -0 1 -0 -2 -4 -3 -2 -3 -4 -6 -5 -4 -6 -9 -9 -8 -8 -12 -10 -4 4 2 -0 -3 -4 -3 1 6 6 5 6 9 12 14 16 16 13 8 2 -4 -7 -7 -6 -3 1 2 2 1 0 -2 -3 -2 3 7 7 4 0 -1 0 2 4 4 3 2 1 0 -0 -0 1 3 4 4 4 3 1 -0
-4 -5 -4 -4 -5 -5 -5 -5 -4 -3 -0 0 -1 -4 -5 -3 -0 1 -0 -4 -4 -2 -1 -5 -6 -6 -5 -11 -11 -5 5 6 3 -2 -7 -8 -4 1 5 4 4 4 5 8 12 18 23 22 16 6 -5 -9 -8 -3 2 3 3 3 2 1 -2 -3 -0 5 7 6 3 1 3 5 7 7 6 4 1 -0 -1 -2 -1 2 3 4 4 3 2 1
-4 -4 -4 -4 -4 -4 -4 -4 -4 -4 -3 -3 -3 -3 -3 -2 0 2 1 -3 -2 0 3 -1 -5 -10 -13 -12 -10 -5 4 6 4 -1 -7 -16 -14 -6 6 5 2 -0 0 2 4 6 10 15 21 21 10 -3 -6 -3 2 4 5 5 4 3 1 -1 -2 3 7 9 7 3 3 5 7 8 7 6 3 2 1 1 2 4 5 5 4 3 2 1
-2 -4 -4 -3 -4 -5 -5 -4 -4 -5 -5 -5 -4 -2 0 1 2 2 1 -2 -2 0 3 6 2 -6 -17 -17 -14 -7 1 1 -0 -2 -6 -17 -18 -11 2 6 3 -2 -6 -5 -2 1 2 1 6 13 18 10 3 -1 0 4 6 6 6 5 4 3 1 3 6 9 8 5 3 3 4 6 6 5 4 4 4 5 6 6 6 5 4 2 1 0
0 -1 -3 -3 -4 -5 -6 -6 -6 -6 -6 -5 -5 -4 -3 -1 1 2 0 -1 -1 -2 -3 1 1 -1 -4 -10 -11 -7 -1 -4 -2 -1 -5 -16 -20 -15 -3 4 6 3 -2 -8 -7 -3 1 -1 -1 2 8 14 11 4 -1 2 5 7 7 7 7 6 4 4 5 6 6 5 3 2 1 2 3 4 4 4 5 6 8 7 6 4 2 1 0 -1
-1 0 0 -2 -3 -3 -3 -4 -6 -7 -5 -4 -4 -6 -8 -7 -4 -2 -3 0 1 1 -2 -4 -7 -7 -5 -11 -13 -10 -1 -0 4 5 -1 -16 -24 -23 -9 0 4 3 1 -5 -5 -3 -2 -5 -5 -2 2 10 18 21 15 7 5 5 7 7 7 7 6 4 3 4 3 4 4 3 1 1 2 3 4 4 5 7 9 7 4 1 -0 -1 -1 -1
1 1 2 -0 -1 -0 0 -2 -3 -3 -0 2 1 -1 -6 -8 -7 -6 -5 -2 0 2 2 2 -3 -8 -8 -15 -19 -15 -2 5 7 6 2 -11 -25 -30 -15 -1 3 1 -3 -8 -4 2 3 -8 -12 -11 -6 -0 11 23 34 31 22 12 7 7 7 7 7 5 3 2 1 1 2 3 3 1 1 2 3 4 6 8 9 6 3 1 -0 -1 -1 -0
2 0 1 3 4 3 -1 -5 -5 -3 1 4 4 2 -3 -6 -8 -9 -7 -4 -3 -1 3 4 0 -4 -3 -9 -16 -16 -2 9 10 7 3 -9 -26 -34 -19 0 6 1 -8 -14 -7 5 11 -1 -11 -16 -13 -9 -5 2 15 30 36 32 18 10 7 7 8 7 6 5 3 2 3 3 3 1 1 1 2 3 4 5 6 5 4 3 4 4 3 3
1 -2 -3 3 7 6 1 -4 -5 -3 -0 4 5 4 -0 -3 -4 -6 -6 -3 -1 1 4 4 3 4 8 2 -8 -13 -4 11 17 18 13 -5 -27 -38 -21 -1 4 -1 -11 -17 -10 2 12 7 -3 -12 -16 -14 -12 -10 -7 2 14 24 27 17 10 6 7 7 7 7 6 5 5 4 3 2 1 2 2 3 3 3 3 3 3 4 6 7 7 5
-2 -4 -6 -2 2 3 2 -1 -3 -3 -0 4 5 4 2 3 3 2 1 2 2 2 1 1 1 1 3 1 -6 -13 -12 5 19 26 25 5 -20 -34 -23 -7 -1 -4 -14 -15 -10 -2 7 11 5 -4 -13 -15 -15 -14 -12 -9 -4 3 13 15 11 7 4 5 6 6 6 5 5 4 3 2 2 2 3 4 3 3 2 2 3 3 5 7 7 7
-2 -4 -5 -4 -3 -2 -1 -1 -0 2 5 7 6 4 3 6 7 7 7 7 6 4 -1 -6 -10 -13 -15 -14 -17 -20 -19 -2 15 25 24 6 -11 -23 -23 -10 -4 -7 -21 -19 -13 -4 4 8 9 4 -4 -13 -16 -14 -13 -10 -8 -5 -0 5 7 7 5 4 4 4 5 4 4 3 2 2 2 3 4 5 5 4 3 3 3 3 3 4 5 6
2 1 -0 -1 -2 -2 -1 0 4 9 13 14 12 10 10 10 10 9 8 8 7 5 2 1 -2 -7 -14 -14 -17 -21 -23 -6 10 21 21 7 -8 -19 -22 -7 0 -4 -23 -28 -20 -6 5 7 8 7 3 -8 -12 -13 -13 -12 -11 -9 -6 -3 1 5 7 6 4 2 2 3 3 3 2 2 2 2 4 5 5 4 3 3 3 3 2 2 3 5
5 5 6 5 3 2 3 5 6 7 8 13 15 15 15 14 12 10 8 5 3 1 2 6 6 5 1 -1 -8 -16 -22 -11 3 16 22 13 -1 -16 -24 -7 2 0 -15 -25 -21 -9 6 5 5 6 6 -2 -7 -10 -12 -14 -14 -13 -12 -9 -5 1 8 10 8 4 2 3 3 3 3 2 2 2 2 3 3 3 2 2 3 4 3 3 3 4
1 2 3 3 2 2 2 2 0 -0 0 4 7 10 15 16 15 11 6 -1 -1 2 6 8 6 3 -1 -2 -7 -14 -18 -9 -0 10 20 18 6 -10 -23 -9 1 3 -6 -18 -18 -10 2 1 0 2 7 4 0 -4 -10 -13 -15 -16 -15 -11 -7 -2 7 13 13 9 4 3 3 3 3 2 2 2 2 2 2 2 2 2 3 5 6 5 5 4
-3 -3 -2 -2 -1 0 2 1 1 0 -0 1 3 8 15 17 16 10 -1 -4 0 6 8 6 3 -2 -7 -11 -15 -17 -17 -12 -5 4 18 19 7 -9 -21 -7 2 5 -0 -14 -20 -18 -7 -4 -2 2 7 10 8 2 -6 -8 -11 -13 -15 -9 -3 3 6 10 11 9 4 2 1 1 2 1 1 1 1 1 1 2 2 2 4 6 7 6 4 3
-7 -6 -5 -3 -2 0 1 0 -0 -1 -1 0 2 5 10 15 15 9 -2 -0 5 9 7 3 1 1 -1 -5 -8 -11 -14 -15 -10 0 14 14 1 -12 -15 -1 3 2 3 -7 -17 -23 -19 -13 -5 1 5 11 12 9 0 -3 -5 -7 -9 -3 4 10 8 5 3 2 -0 -1 -0 1 1 1 0 0 1 1 1 2 2 3 5 7 7 5 3 1
-11 -10 -9 -8 -4 -1 2 1 -1 -3 -2 0 2 4 7 10 11 8 3 4 7 9 6 3 4 6 7 6 2 -5 -13 -15 -7 5 14 11 -1 -12 -11 0 4 6 14 12 2 -11 -22 -20 -11 -1 5 11 15 15 12 9 6 3 1 4 7 9 8 2 -2 -5 -5 -3 -1 1 1 1 0 0 0 0 1 2 2 3 5 6 5 3 1 -0
-11 -11 -11 -9 -4 2 8 5 1 -2 -1 1 2 3 4 5 5 5 4 4 5 6 5 4 4 5 8 10 6 -2 -17 -21 -8 10 21 15 1 -11 -11 0 4 7 18 23 18 5 -11 -20 -17 -6 8 14 17 19 21 21 19 16 14 12 9 6 4 1 -5 -10 -12 -6 -2 1 2 2 1 1 0 0 1 2 3 3 5 5 5 3 1 -1
-9 -9 -9 -7 -2 3 6 4 2 0 -0 0 1 1 2 3 4 4 4 4 5 6 6 4 2 2 4 9 8 1 -16 -21 -10 8 22 18 5 -8 -10 1 0 -4 -3 11 16 12 0 -17 -26 -25 -10 0 8 14 20 23 23 22 21 17 11 5 3 1 -5 -12 -16 -10 -3 2 3 3 2 1 1 1 1 2 3 4 5 5 4 3 1 -2
-7 -7 -7 -5 -3 -1 0 0 1 1 -0 -1 -0 0 2 3 4 4 4 5 7 9 9 7 4 1 -0 2 2 -2 -11 -13 -6 7 21 23 14 2 -6 -2 -5 -10 -13 -0 10 14 8 -7 -20 -28 -27 -18 -8 2 10 14 17 18 18 14 9 5 3 4 -1 -7 -14 -10 -5 1 3 4 3 2 1 1 1 2 3 4 4 4 4 3 1 -1
-5 -5 -5 -4 -3 -3 -2 -0 1 0 -0 -1 -1 0 2 3 3 4 5 5 7 9 10 10 7 3 -0 -1 -3 -5 -9 -7 -2 8 21 28 23 11 -1 -4 -6 -7 -4 5 12 15 11 2 -5 -12 -19 -22 -19 -12 -3 1 5 9 11 9 6 3 3 7 7 3 -5 -8 -5 -2 1 3 3 3 2 2 1 1 2 4 4 3 3 3 2 1
-5 -5 -5 -4 -3 -3 -3 -2 -1 -0 -0 -0 0 1 2 2 2 2 3 4 5 6 7 8 8 7 6 7 7 4 -2 -3 -1 4 12 24 26 21 11 7 7 10 14 15 17 17 13 5 0 -3 -8 -18 -23 -21 -10 -5 -1 2 5 6 5 4 2 6 8 6 -1 -5 -6 -4 -2 0 2 3 3 3 2 2 2 3 3 3 3 4 3 2
-5 -7 -6 -5 -3 -3 -4 -3 -2 -0 2 2 2 2 2 2 1 1 2 2 3 4 5 6 7 8 9 14 16 13 2 -4 -5 -2 2 10 16 21 21 13 10 11 14 11 10 11 11 4 -0 -3 -4 -12 -19 -23 -19 -10 -5 -2 -0 2 3 3 2 3 4 3 -1 -5 -6 -5 -3 -2 -0 1 2 3 3 4 3 3 2 2 3 5 5 4
-6 -7 -7 -5 -3 -2 -3 -3 -2 1 3 2 1 1 1 2 1 1 1 2 2 3 3 4 5 6 7 9 9 6 -1 -6 -7 -4 0 5 9 12 12 5 3 4 7 2 -1 -1 2 -0 -3 -6 -5 -7 -12 -16 -19 -13 -8 -4 -5 -4 -2 -0 0 1 2 3 1 -3 -4 -4 -4 -3 -1 0 2 3 4 4 3 3 2 2 3 4 6 6
-5 -5 -4 -2 0 1 -1 -3 -3 -2 -0 -1 -2 -2 -1 0 1 1 1 1 1 2 2 2 1 1 2 2 1 -0 -3 -5 -6 -4 1 5 8 10 8 3 2 4 8 4 -0 -2 -1 -1 -3 -6 -9 -10 -9 -9 -9 -7 -5 -5 -8 -8 -6 -3 1 2 2 2 2 -0 -3 -5 -6 -3 -1 1 1 2 3 3 2 1 1 2 2 4 6 8
-1 -1 0 4 5 4 0 -3 -4 -4 -2 -2 -2 -2 -2 -1 0 1 2 1 1 2 3 3 2 0 -1 -2 -3 -3 -3 -4 -3 -2 1 4 7 8 9 6 5 7 11 10 6 2 0 -0 -2 -3 -6 -9 -10 -9 -5 -2 -1 -3 -7 -10 -9 -5 1 3 1 -0 0 -1 -4 -7 -8 -4 -1 1 1 2 3 2 0 -1 -0 1 1 3 6 9
1 1 1 2 2 -1 -4 -4 -3 -2 -1 -2 -2 -2 -2 -2 -2 -2 -0 0 1 2 3 5 4 2 0 -1 -2 -2 -2 -1 1 2 4 5 7 8 9 7 7 8 12 13 10 5 2 -1 -2 -2 0 -1 -4 -7 -6 -3 -2 -2 -4 -7 -9 -9 -4 -0 -0 -1 -2 -2 -5 -6 -5 -2 1 2 2 2 1 1 1 0 -0 -0 0 1 3 6
-1 -2 -3 -4 -5 -5 -4 -2 -0 1 2 -0 -2 -4 -4 -3 -2 -2 -3 -5 -4 -2 1 1 -0 -2 -3 -2 -1 1 2 3 5 6 7 8 8 9 8 7 6 8 12 13 11 8 5 2 -0 -2 -1 1 0 -2 -3 -2 -1 -1 -1 -4 -7 -9 -6 -1 1 1 -2 -0 2 5 8 9 8 6 4 1 -0 -0 1 1 2 2 2 0 -1 -1
-2 -3 -3 -4 -5 -5 -5 -4 -1 1 2 0 -1 -2 1 6 8 6 -0 -6 -8 -6 -3 -2 -4 -7 -12 -12 -9 -3 1 4 5 7 7 8 8 8 7 5 5 6 9 9 8 7 6 5 3 1 -1 2 2 1 -3 -2 -0 1 0 -4 -7 -8 -6 0 5 7 0 3 12 20 21 17 14 11 7 4 2 0 1 1 3 5 6 4 1 -2
-2 -1 -1 -1 -2 -3 -4 -4 -3 -3 -2 -3 -4 -2 3 9 11 8 2 -3 -5 -6 -4 -2 -2 -4 -9 -15 -15 -12 -5 1 6 8 8 8 7 6 5 4 3 4 6 5 3 2 3 5 3 0 -2 1 3 3 0 -0 1 2 -0 -4 -5 -5 -3 0 3 4 -1 -1 2 5 5 5 4 3 3 5 5 4 2 2 2 5 9 9 5 0
-0 -0 -0 -0 -1 -2 -3 -3 -3 -3 -3 -5 -6 -6 -2 2 3 3 0 -2 -3 -3 -2 -2 -2 -3 -6 -10 -12 -13 -11 -5 2 8 10 9 8 6 5 3 3 3 5 5 3 1 1 2 1 -1 -2 -0 -0 -0 -2 1 4 4 1 -3 -4 -3 -1 -0 -1 -4 -7 -6 -6 -6 -4 -3 -3 -5 -6 -0 4 6 5 4 3 4 8 10 8 4
-1 -1 -1 -1 -1 -2 -3 -3 -2 -2 -3 -4 -5 -4 -2 1 3 3 2 -1 -3 -3 -1 -0 -2 -5 -9 -10 -11 -11 -14 -12 -7 -1 3 5 7 8 7 5 3 3 3 4 4 5 5 2 -0 -1 0 1 0 -2 -3 -2 1 3 3 -1 -3 -4 -3 -2 -2 -4 -4 -5 -6 -8 -10 -10 -10 -9 -8 -4 1 5 6 5 5 5 6 6 6 4
-2 -2 -2 -2 -2 -2 -2 -2 -1 -2 -3 -4 -3 -3 -1 1 2 3 3 2 -0 -2 -2 1 2 -0 -5 -9 -10 -11 -14 -16 -14 -11 -6 -2 2 6 7 6 5 4 3 2 3 5 6 4 3 3 4 2 -1 -4 -5 -2 1 1 -0 -0 -0 -1 -3 -3 -3 -3 -2 -2 -2 -4 -9 -13 -14 -12 -8 -5 0 5 8 7 7 6 4 2 1 1
-2 -2 -2 -2 -2 -2 -2 -2 -1 -2 -3 -4 -4 -3 -2 -1 -0 -0 -1 0 1 0 -2 -1 1 2 -1 -3 -5 -7 -10 -14 -15 -15 -12 -8 -4 0 3 4 5 5 4 3 2 2 2 3 5 7 8 5 -1 -7 -10 -4 1 4 2 4 6 5 -2 -5 -5 -4 -4 -0 4 5 0 -8 -12 -12 -9 -7 -1 5 10 10 9 8 5 2 -0 -1
-0 -1 -1 -2 -2 -2 -3 -2 -2 -2 -3 -4 -4 -4 -2 -1 -0 -2 -4 -3 -1 1 -0 -1 -1 -1 -2 -3 -2 -2 -2 -6 -9 -11 -11 -9 -7 -5 -3 -1 1 2 3 3 2 1 -1 0 2 5 7 6 1 -5 -11 -7 -1 6 11 13 13 8 -4 -7 -7 -5 -5 -1 7 12 11 -0 -7 -10 -10 -8 -4 2 9 11 11 9 7 5 3 1
1 0 -1 -1 -1 -2 -3 -2 -2 -2 -3 -4 -5 -5 -5 -1 1 1 -1 -1 -0 1 1 0 -1 -2 -4 -4 -3 -1 1 0 -2 -4 -5 -5 -6 -7 -8 -8 -7 -6 -5 -3 -2 -3 -4 -4 -2 1 4 6 4 -1 -7 -7 -4 -0 4 6 5 1 -7 -10 -9 -6 -3 0 7 11 10 0 -5 -7 -6 -5 -3 -0 5 10 11 11 9 8 6 5
1 1 0 0 -0 -1 -2 -2 -2 -1 -2 -3 -3 -4 -5 -4 -1 1 2 2 2 3 3 2 1 -1 -3 -5 -4 -2 1 2 1 -0 -1 -1 -3 -5 -8 -10 -10 -9 -9 -10 -10 -10 -11 -12 -9 -5 1 6 6 4 0 -3 -3 -2 -1 -3 -5 -6 -8 -10 -10 -7 -4 -1 3 5 2 -2 -4 -4 -2 -1 -1 -1 1 5 8 10 10 9 7 6
-1 -0 1 1 0 -0 -1 -1 -1 -0 -0 -0 -1 -2 -3 -3 -3 -1 1 3 3 3 2 2 2 0 -2 -4 -4 -3 0 4 3 1 -2 -2 -2 -3 -5 -5 -4 -4 -5 -8 -10 -10 -9 -10 -10 -9 -5 4 8 9 6 2 1 1 -0 -4 -6 -6 -6 -8 -8 -8 -5 -3 -2 -2 -4 -4 -2 0 2 1 -1 -3 -2 1 4 7 9 9 8 7
Height
1452 1451 1450 1450 1449 1448 1446 1446 1447 1445 1443 1443 1443 1442 1441 1441 1440 1439 1439 1439 1439 1438 1437 1437 1436 1436 1436 1435 1435 1435 1435 1434 1434 1434 1433 1433 1432 1432 1432 1431 1431 1431 1431 1431 1431 1431 1431 1430 1430 1430 1430 1430 1430 1430 1430 1430 1431 1431 1432 1432 1433 1433 1433 1434 1435 1435 1436 1436 1437 1437 1438 1438 1438 1439 1440 1441 1442 1442 1443 1444 1446 1447 1448 1449 1450 1452
1450 1449 1448 1448 1447 1446 1444 1443 1444 1444 1442 1441 1440 1439 1439 1438 1437 1436 1436 1436 1436 1435 1435 1434 1433 1433 1432 1432 1432 1432 1432 1431 1431 1430 1430 1430 1429 1429 1428 1428 1428 1428 1427 1427 1428 1428 1428 1428 1427 1427 1427 1427 1427 1427 1427 1428 1428 1428 1429 1429 1430 1431 1431 1432 1432 1433 1433 1434 1434 1434 1435 1436 1437 1437 1438 1439 1439 1440 1441 1442 1443 1444 1446 1447 1448 1449
1447 1447 1446 1445 1445 1444 1442 1441 1441 1442 1441 1439 1438 1437 1437 1436 1434 1434 1433 1433 1432 1432 1432 1431 1430 1429 1429 1428 1428 1428 1428 1428 1428 1427 1427 1427 1426 1426 1426 1425 1425 1425 1424 1424 1424 1425 1425 1425 1425 1425 1425 1425 1425 1425 1425 1425 1425 1425 1426 1427 1427 1428 1428 1429 1429 1430 1430 1431 1431 1432 1433 1434 1434 1435 1435 1436 1437 1438 1439 1440 1441 1442 1443 1444 1445 1446
1447 1445 1444 1443 1443 1442 1441 1440 1439 1438 1438 1437 1436 1435 1435 1433 1432 1431 1431 1430 1430 1429 1428 1428 1427 1427 1426 1425 1425 1425 1425 1425 1425 1424 1424 1423 1423 1423 1422 1422 1422 1422 1421 1421 1421 1421 1422 1422 1422 1422 1422 1422 1422 1422 1422 1422 1422 1423 1423 1423 1424 1425 1426 1426 1427 1427 1427 1428 1428 1429 1430 1431 1432 1432 1433 1434 1435 1436 1436 1437 1438 1439 1441 1442 1442 1444
1445 1444 1442 1442 1441 1440 1439 1438 1438 1437 1436 1435 1434 1433 1432 1431 1430 1429 1428 1427 1427 1426 1425 1425 1425 1424 1423 1422 1422 1422 1422 1422 1421 1421 1421 1420 1420 1420 1419 1419 1419 1418 1418 1418 1418 1418 1418 1418 1418 1419 1419 1419 1419 1419 1419 1419 1420 1420 1420 1421 1421 1422 1422 1423 1424 1424 1425 1425 1426 1427 1427 1428 1429 1430 1430 1431 1432 1433 1434 1435 1436 1437 1438 1439 1440 1442
1443 1443 1442 1441 1440 1438 1437 1436 1436 1435 1434 1432 1432 1431 1430 1429 1428 1427 1426 1425 1424 1423 1422 1422 1422 1421 1420 1419 1419 1418 1418 1418 1418 1418 1417 1417 1417 1417 1416 1416 1415 1415 1415 1415 1415 1415 1415 1415 1415 1415 1416 1416 1416 1416 1416 1417 1417 1417 1417 1418 1418 1419 1419 1420 1421 1422 1422 1422 1422 1423 1424 1425 1426 1427 1427 1428 1429 1430 1431 1432 1433 1434 1435 1437 1438 1439
1441 1440 1440 1439 1437 1437 1436 1435 1434 1434 1433 1431 1429 1428 1427 1427 1426 1425 1424 1423 1422 1421 1420 1419 1418 1418 1417 1417 1416 1416 1415 1415 1414 1414 1414 1414 1414 1413 1413 1412 1412 1411 1411 1411 1411 1412 1412 1412 1412 1412 1412 1412 1412 1413 1413 1413 1413 1414 1414 1415 1415 1416 1417 1417 1418 1418 1419 1419 1419 1420 1421 1422 1423 1424 1425 1426 1426 1427 1428 1430 1431 1432 1433 1434 1435 1437
1439 1438 1438 1437 1436 1434 1433 1433 1433 1433 1432 1430 1428 1426 1425 1424 1423 1422 1422 1421 1420 1419 1418 1417 1416 1415 1415 1414 1414 1413 1412 1412 1411 1411 1411 1411 1410 1410 1410 1409 1409 1408 1408 1408 1408 1408 1408 1408 1408 1409 1409 1409 1409 1409 1409 1410 1410 1410 1411 1412 1412 1413 1413 1414 1414 1415 1416 1416 1417 1417 1418 1419 1420 1421 1422 1422 1423 1424 1426 1427 1428 1429 1430 1431 1432 1433
1439 1437 1435 1435 1435 1433 1431 1430 1430 1431 1431 1429 1427 1426 1424 1422 1420 1419 1419 1418 1418 1417 1417 1415 1414 1412 1412 1412 1412 1411 1410 1409 1409 1408 1407 1407 1407 1407 1407 1407 1406 1406 1405 1405 1405 1405 1405 1405 1405 1405 1406 1406 1406 1406 1406 1406 1406 1407 1407 1408 1409 1409 1410 1411 1411 1412 1412 1413 1414 1414 1415 1416 1417 1418 1418 1419 1420 1422 1422 1424 1425 1426 1427 1427 1429 1430
1439 1437 1435 1434 1433 1433 1431 1428 1427 1428 1429 1427 1426 1425 1424 1422 1419 1417 1416 1416 1415 1415 1415 1414 1412 1411 1410 1410 1409 1409 1408 1407 1406 1406 1405 1404 1404 1404 1404 1403 1403 1403 1402 1402 1402 1402 1402 1402 1402 1402 1402 1402 1403 1403 1403 1403 1403 1403 1404 1404 1405 1406 1407 1407 1408 1409 1409 1410 1411 1412 1412 1413 1414 1415 1416 1417 1418 1419 1420 1421 1422 1423 1423 1424 1426 1428
1437 1436 1435 1433 1432 1431 1431 1429 1427 1426 1426 1425 1423 1422 1422 1422 1420 1418 1415 1413 1412 1413 1413 1412 1411 1410 1408 1407 1406 1406 1406 1404 1403 1403 1402 1402 1401 1401 1401 1400 1400 1400 1399 1399 1398 1398 1398 1398 1398 1399 1399 1399 1400 1400 1400 1400 1400 1400 1400 1401 1402 1402 1403 1404 1405 1406 1407 1407 1408 1409 1409 1410 1411 1412 1413 1414 1415 1416 1417 1418 1419 1420 1421 1422 1423 1425
1436 1435 1433 1432 1430 1429 1428 1427 1426 1425 1424 1423 1422 1420 1419 1420 1420 1419 1416 1412 1411 1411 1410 1409 1408 1408 1407 1406 1404 1403 1403 1402 1402 1400 1400 1399 1399 1398 1398 1397 1397 1397 1397 1396 1396 1395 1395 1395 1395 1395 1396 1396 1396 1397 1397 1396 1396 1397 1397 1398 1399 1400 1400 1401 1402 1403 1404 1404 1405 1406 1407 1407 1408 1409 1410 1411 1412 1413 1415 1416 1417 1417 1418 1419 1421 1422
1435 1434 1432 1431 1429 1428 1427 1426 1424 1423 1422 1422 1421 1419 1417 1417 1418 1417 1415 1412 1410 1410 1409 1407 1405 1404 1405 1405 1403 1402 1402 1401 1399 1398 1397 1397 1396 1396 1395 1394 1394 1393 1393 1393 1392 1392 1391 1391 1391 1392 1392 1392 1393 1393 1393 1393 1393 1393 1394 1395 1396 1397 1397 1398 1399 1400 1401 1402 1402 1403 1404 1405 1405 1406 1407 1408 1409 1411 1412 1413 1413 1414 1415 1417 1418 1420
1433 1432 1431 1429 1428 1427 1426 1425 1424 1422 1421 1421 1421 1419 1417 1416 1416 1415 1413 1410 1408 1408 1408 1406 1403 1402 1402 1402 1402 1401 1400 1399 1397 1396 1395 1394 1394 1393 1392 1391 1390 1390 1390 1389 1389 1389 1389 1388 1388 1387 1388 1389 1389 1390 1390 1390 1390 1390 1390 1391 1392 1394 1394 1395 1396 1397 1398 1399 1400 1401 1401 1402 1403 1403 1404 1405 1407 1407 1409 1410 1411 1412 1412 1414 1416 1417
1432 1431 1430 1428 1427 1426 1425 1424 1423 1421 1420 1420 1419 1418 1416 1415 1414 1413 1412 1409 1407 1406 1406 1404 1401 1399 1399 1400 1400 1400 1399 1397 1395 1393 1392 1391 1391 1390 1389 1388 1386 1386 1386 1385 1385 1385 1386 1386 1385 1384 1384 1385 1386 1386 1387 1387 1387 1387 1387 1388 1389 1390 1391 1392 1393 1394 1395 1396 1397 1397 1398 1398 1399 1401 1402 1403 1404 1405 1406 1407 1407 1408 1410 1411 1412 1414
1432 1431 1429 1427 1426 1425 1424 1423 1422 1420 1419 1418 1417 1417 1415 1413 1412 1412 1411 1409 1407 1405 1404 1402 1400 1397 1396 1397 1398 1398 1397 1395 1393 1391 1390 1388 1388 1388 1388 1386 1384 1382 1382 1382 1381 1380 1381 1382 1383 1383 1382 1382 1382 1382 1383 1383 1384 1384 1384 1385 1386 1387 1388 1389 1389 1390 1391 1392 1393 1394 1394 1395 1396 1397 1398 1400 1401 1402 1403 1404 1405 1406 1407 1408 1410 1411
1431 1430 1428 1426 1424 1423 1423 1422 1421 1419 1417 1417 1416 1415 1415 1413 1412 1411 1410 1408 1406 1405 1403 1402 1400 1397 1394 1393 1394 1396 1396 1394 1391 1389 1388 1386 1385 1386 1387 1385 1382 1380 1379 1379 1378 1378 1378 1378 1378 1379 1380 1380 1380 1380 1380 1381 1381 1382 1382 1382 1383 1384 1385 1386 1387 1387 1387 1388 1389 1390 1391 1392 1393 1394 1395 1396 1397 1398 1400 1401 1402 1403 1404 1405 1407 1408
1430 1429 1427 1426 1424 1422 1421 1420 1419 1417 1416 1415 1414 1413 1413 1412 1411 1410 1408 1407 1406 1404 1402 1401 1400 1397 1395 1392 1391 1392 1394 1392 1389 1387 1386 1384 1382 1382 1384 1383 1381 1378 1377 1376 1376 1375 1375 1375 1375 1375 1376 1377 1378 1378 1378 1378 1379 1379 1379 1380 1380 1381 1382 1383 1383 1383 1383 1384 1385 1387 1388 1389 1390 1391 1392 1393 1394 1395 1396 1397 1398 1400 1401 1402 1404 1405
1428 1427 1427 1425 1422 1421 1420 1419 1418 1416 1415 1414 1413 1412 1411 1409 1409 1408 1407 1405 1404 1403 1401 1399 1397 1396 1395 1392 1390 1390 1392 1391 1388 1385 1383 1382 1380 1379 1380 1381 1379 1377 1375 1374 1373 1372 1372 1372 1372 1372 1373 1373 1375 1376 1377 1377 1377 1377 1377 1377 1378 1378 1379 1380 1380 1380 1380 1381 1382 1383 1384 1386 1387 1387 1389 1390 1391 1392 1393 1394 1396 1397 1398 1400 1402 1403
1427 1426 1425 1424 1422 1420 1418 1418 1417 1416 1414 1413 1412 1411 1409 1407 1407 1406 1405 1403 1402 1401 1399 1397 1395 1393 1392 1390 1388 1387 1389 1389 1387 1383 1381 1380 1378 1377 1377 1378 1376 1374 1373 1372 1372 1371 1370 1369 1368 1369 1370 1370 1371 1372 1374 1375 1375 1375 1375 1375 1375 1376 1376 1377 1377 1377 1377 1378 1379 1380 1381 1382 1383 1384 1385 1386 1388 1389 1390 1392 1393 1395 1396 1397 1399 1400
1425 1423 1423 1423 1421 1419 1416 1415 1415 1415 1413 1412 1410 1409 1407 1406 1405 1403 1402 1402 1400 1398 1397 1396 1393 1391 1390 1389 1387 1386 1387 1387 1385 1382 1379 1378 1376 1375 1375 1375 1374 1372 1370 1369 1369 1369 1368 1367 1366 1366 1366 1367 1367 1368 1368 1370 1372 1372 1372 1372 1372 1373 1373 1374 1374 1374 1375 1375 1376 1376 1377 1379 1380 1381 1382 1383 1384 1386 1387 1389 1390 1392 1393 1395 1396 1397
1423 1422 1421 1421 1420 1417 1415 1413 1412 1412 1411 1410 1409 1407 1406 1405 1403 1401 1400 1400 1398 1397 1396 1394 1392 1391 1389 1387 1385 1384 1385 1385 1383 1381 1379 1377 1374 1372 1373 1373 1372 1370 1367 1367 1367 1367 1367 1365 1364 1363 1363 1363 1364 1365 1365 1365 1366 1367 1369 1369 1370 1370 1371 1371 1371 1372 1372 1372 1373 1373 1374 1375 1377 1377 1378 1380 1381 1382 1384 1385 1387 1389 1390 1392 1393 1395
1422 1420 1418 1418 1417 1416 1414 1412 1410 1409 1409 1408 1407 1405 1404 1403 1402 1400 1398 1397 1397 1395 1393 1392 1391 1389 1388 1386 1384 1383 1382 1382 1381 1380 1378 1376 1372 1370 1371 1372 1370 1367 1365 1364 1365 1365 1364 1363 1362 1361 1361 1360 1361 1362 1363 1363 1363 1364 1364 1366 1367 1367 1368 1368 1368 1369 1369 1370 1370 1371 1371 1372 1373 1374 1375 1376 1377 1379 1380 1382 1383 1385 1387 1389 1390 1392
1420 1418 1417 1416 1415 1414 1412 1411 1409 1408 1407 1406 1405 1403 1402 1401 1400 1398 1397 1396 1394 1392 1391 1389 1388 1386 1385 1384 1382 1380 1379 1379 1378 1378 1376 1373 1370 1369 1369 1370 1368 1365 1362 1362 1363 1362 1361 1360 1360 1360 1359 1358 1358 1359 1360 1360 1361 1361 1362 1362 1363 1365 1365 1366 1366 1366 1367 1367 1367 1368 1369 1369 1370 1371 1372 1373 1374 1376 1377 1378 1380 1382 1383 1385 1387 1389
1418 1417 1415 1414 1413 1412 1411 1409 1408 1407 1406 1405 1403 1402 1400 1399 1397 1396 1395 1394 1392 1391 1389 1387 1386 1383 1382 1381 1380 1378 1376 1376 1376 1375 1373 1371 1369 1367 1367 1367 1366 1363 1361 1360 1361 1360 1358 1357 1356 1357 1357 1357 1356 1357 1357 1358 1358 1359 1359 1360 1361 1362 1363 1363 1363 1364 1364 1364 1365 1366 1366 1367 1367 1368 1369 1370 1371 1372 1374 1375 1377 1378 1380 1382 1384 1386
1417 1415 1414 1412 1412 1410 1409 1408 1407 1406 1405 1403 1402 1401 1399 1397 1396 1394 1393 1392 1390 1389 1387 1386 1384 1382 1380 1379 1378 1376 1375 1374 1374 1373 1372 1369 1367 1366 1365 1364 1363 1362 1359 1358 1358 1357 1355 1353 1353 1354 1355 1354 1354 1355 1355 1356 1356 1357 1357 1357 1358 1359 1360 1361 1361 1361 1362 1362 1362 1363 1363 1364 1365 1365 1366 1367 1368 1369 1371 1372 1373 1375 1377 1378 1380 1382
1414 1413 1411 1410 1409 1408 1407 1405 1404 1403 1402 1402 1400 1399 1397 1396 1394 1392 1391 1389 1388 1387 1386 1384 1382 1381 1379 1378 1377 1375 1373 1372 1372 1371 1370 1369 1367 1364 1362 1362 1361 1360 1358 1357 1356 1355 1353 1351 1350 1350 1351 1352 1352 1353 1353 1354 1355 1355 1356 1356 1356 1357 1357 1358 1358 1359 1359 1359 1360 1360 1361 1362 1362 1363 1363 1364 1365 1366 1367 1369 1370 1372 1373 1375 1377 1378
1411 1409 1408 1407 1406 1405 1403 1402 1402 1401 1399 1398 1397 1396 1395 1393 1392 1390 1388 1387 1387 1386 1384 1383 1381 1379 1377 1376 1374 1372 1372 1371 1370 1369 1369 1368 1366 1363 1361 1360 1360 1359 1358 1356 1354 1352 1351 1349 1348 1347 1348 1348 1349 1350 1351 1352 1352 1353 1354 1354 1354 1354 1355 1355 1355 1356 1356 1357 1357 1358 1358 1359 1359 1360 1361 1362 1363 1364 1365 1366 1367 1369 1370 1372 1373 1375
1408 1407 1405 1404 1403 1402 1401 1400 1399 1398 1397 1396 1394 1393 1392 1391 1390 1388 1387 1386 1385 1384 1382 1381 1379 1378 1376 1374 1372 1371 1369 1368 1368 1368 1368 1367 1365 1362 1360 1359 1358 1358 1357 1355 1353 1351 1349 1347 1347 1346 1346 1346 1346 1347 1348 1349 1350 1351 1352 1352 1352 1352 1352 1352 1352 1352 1353 1354 1355 1355 1356 1356 1357 1358 1358 1359 1360 1361 1362 1363 1365 1366 1367 1369 1370 1372
1405 1403 1402 1401 1400 1399 1398 1397 1396 1395 1394 1393 1392 1391 1389 1389 1388 1387 1386 1385 1384 1383 1381 1379 1378 1377 1375 1373 1372 1370 1368 1367 1366 1367 1367 1366 1363 1361 1360 1359 1358 1358 1357 1356 1354 1351 1349 1347 1347 1346 1345 1345 1345 1345 1346 1347 1348 1348 1349 1350 1350 1349 1348 1349 1350 1351 1351 1352 1352 1353 1353 1354 1354 1355 1356 1357 1358 1359 1360 1361 1362 1363 1364 1366 1367 1369
1402 1401 1400 1399 1398 1397 1396 1395 1394 1393 1392 1391 1390 1389 1387 1387 1386 1385 1384 1384 1383 1382 1380 1378 1377 1376 1374 1373 1372 1369 1367 1365 1365 1366 1366 1364 1362 1360 1359 1358 1358 1357 1357 1356 1355 1352 1350 1349 1347 1347 1346 1345 1344 1344 1344 1345 1345 1345 1345 1346 1347 1346 1346 1346 1347 1348 1349 1350 1351 1351 1351 1352 1352 1352 1353 1354 1355 1356 1357 1358 1359 1360 1361 1363 1364 1366
1401 1400 1398 1397 1397 1396 1395 1394 1392 1392 1391 1390 1389 1387 1386 1385 1384 1383 1383 1382 1381 1380 1379 1377 1375 1374 1373 1372 1371 1368 1366 1363 1362 1363 1364 1362 1360 1359 1358 1357 1357 1356 1356 1356 1355 1353 1351 1349 1347 1347 1346 1345 1344 1343 1343 1342 1342 1342 1342 1343 1343 1343 1343 1344 1344 1346 1347 1348 1349 1349 1349 1349 1350 1350 1351 1352 1353 1354 1355 1356 1357 1357 1359 1360 1361 1363
1399 1398 1397 1396 1395 1394 1393 1392 1391 1390 1389 1388 1387 1386 1385 1384 1383 1382 1381 1380 1379 1378 1377 1376 1374 1372 1371 1370 1368 1367 1364 1362 1362 1362 1362 1360 1359 1357 1356 1355 1355 1354 1354 1354 1353 1352 1350 1349 1347 1346 1345 1344 1343 1342 1342 1341 1340 1340 1341 1341 1341 1341 1342 1343 1343 1344 1345 1346 1347 1347 1347 1347 1347 1348 1348 1349 1350 1351 1352 1353 1354 1355 1356 1357 1359 1360
1397 1396 1395 1394 1393 1392 1391 1390 1388 1388 1387 1386 1385 1385 1384 1383 1382 1381 1380 1379 1378 1377 1376 1374 1373 1372 1370 1368 1366 1364 1362 1361 1361 1361 1360 1359 1358 1356 1354 1354 1353 1353 1353 1352 1352 1350 1349 1347 1347 1345 1344 1343 1342 1342 1341 1340 1340 1340 1340 1340 1340 1340 1341 1342 1343 1343 1343 1344 1345 1345 1345 1345 1345 1346 1346 1347 1348 1349 1350 1350 1351 1352 1353 1355 1356 1358
1396 1394 1393 1392 1391 1390 1389 1387 1387 1386 1385 1384 1384 1383 1382 1381 1380 1379 1378 1377 1376 1375 1374 1373 1372 1371 1369 1367 1365 1363 1361 1360 1360 1360 1359 1358 1357 1355 1353 1352 1352 1352 1352 1351 1350 1349 1348 1347 1346 1345 1344 1342 1341 1340 1340 1340 1340 1340 1340 1340 1340 1340 1340 1340 1341 1341 1342 1342 1342 1342 1342 1343 1343 1343 1344 1345 1345 1346 1347 1348 1349 1350 1351 1352 1354 1356
1394 1392 1392 1391 1389 1388 1387 1386 1385 1384 1383 1383 1382 1381 1381 1379 1378 1377 1377 1375 1374 1373 1372 1371 1370 1369 1368 1367 1365 1362 1360 1359 1358 1358 1358 1357 1356 1355 1353 1352 1351 1351 1351 1350 1349 1348 1347 1346 1345 1344 1343 1342 1340 1339 1338 1339 1339 1339 1339 1339 1339 1339 1339 1339 1339 1339 1339 1340 1340 1340 1340 1341 1341 1341 1342 1342 1343 1344 1345 1346 1347 1348 1349 1350 1352 1354
1392 1391 1390 1389 1388 1387 1386 1384 1384 1383 1382 1381 1380 1379 1378 1377 1377 1376 1374 1373 1372 1372 1371 1369 1368 1367 1366 1365 1363 1361 1360 1358 1357 1357 1357 1356 1355 1354 1352 1351 1350 1349 1349 1349 1348 1347 1346 1345 1344 1343 1342 1342 1341 1339 1338 1338 1338 1338 1338 1338 1338 1338 1338 1338 1338 1337 1337 1338 1338 1338 1338 1339 1339 1339 1340 1341 1341 1342 1343 1344 1345 1346 1347 1348 1350 1352
1391 1390 1389 1388 1387 1386 1384 1383 1382 1381 1380 1379 1378 1377 1376 1375 1374 1373 1372 1372 1371 1370 1369 1367 1366 1365 1364 1363 1362 1360 1359 1357 1357 1356 1355 1354 1353 1352 1351 1349 1348 1347 1347 1347 1347 1346 1346 1344 1343 1342 1341 1340 1339 1339 1338 1338 1337 1337 1337 1337 1337 1337 1337 1337 1337 1336 1336 1336 1336 1337 1337 1337 1337 1338 1338 1339 1339 1340 1341 1342 1343 1344 1345 1347 1348 1350
1390 1389 1388 1387 1386 1385 1383 1382 1381 1379 1378 1377 1377 1375 1374 1373 1372 1372 1371 1370 1369 1368 1367 1366 1364 1363 1362 1361 1360 1359 1358 1357 1355 1354 1353 1352 1352 1350 1349 1347 1346 1345 1345 1345 1345 1345 1344 1343 1342 1341 1340 1339 1337 1337 1337 1337 1337 1337 1336 1336 1335 1335 1336 1336 1336 1335 1334 1334 1335 1335 1335 1336 1336 1336 1336 1337 1337 1338 1339 1340 1341 1342 1343 1345 1347 1349
1389 1387 1386 1385 1384 1383 1382 1380 1379 1378 1377 1376 1375 1374 1372 1371 1370 1369 1369 1368 1367 1366 1365 1364 1363 1361 1360 1359 1358 1357 1356 1355 1354 1353 1352 1351 1350 1349 1347 1346 1344 1343 1342 1342 1342 1342 1342 1342 1340 1339 1339 1337 1337 1336 1335 1335 1335 1335 1335 1335 1334 1334 1334 1335 1335 1334 1334 1333 1334 1334 1334 1334 1335 1335 1335 1335 1336 1336 1337 1338 1339 1341 1342 1343 1345 1347
1387 1386 1384 1383 1382 1381 1380 1379 1378 1377 1376 1375 1373 1372 1371 1370 1369 1368 1367 1366 1365 1364 1363 1362 1361 1359 1357 1357 1356 1355 1354 1353 1352 1352 1351 1350 1349 1347 1346 1345 1343 1342 1341 1340 1340 1340 1340 1340 1339 1338 1337 1336 1335 1334 1334 1333 1334 1334 1334 1334 1333 1333 1333 1333 1333 1333 1333 1332 1332 1333 1333 1333 1333 1333 1333 1334 1334 1335 1336 1337 1338 1339 1341 1342 1343 1345
1385 1384 1382 1381 1380 1378 1378 1377 1376 1376 1374 1373 1372 1371 1370 1369 1368 1367 1366 1364 1363 1362 1361 1359 1358 1356 1355 1354 1353 1353 1352 1352 1351 1350 1349 1348 1347 1346 1345 1343 1342 1341 1339 1338 1337 1337 1337 1337 1337 1336 1335 1335 1334 1333 1332 1332 1332 1332 1332 1332 1332 1332 1332 1332 1332 1332 1332 1331 1331 1332 1332 1331 1331 1331 1332 1332 1333 1333 1334 1335 1337 1338 1340 1341 1342 1343
1383 1382 1381 1379 1378 1377 1376 1375 1374 1373 1372 1371 1370 1369 1368 1368 1367 1366 1364 1363 1362 1361 1359 1358 1357 1355 1353 1351 1350 1350 1349 1349 1348 1347 1347 1346 1345 1344 1343 1342 1341 1339 1338 1337 1336 1335 1334 1335 1335 1334 1334 1333 1333 1332 1330 1330 1330 1330 1330 1331 1331 1331 1330 1329 1330 1330 1330 1330 1329 1329 1328 1328 1328 1328 1329 1331 1332 1332 1333 1334 1335 1336 1338 1339 1340 1342
1382 1380 1379 1377 1376 1375 1373 1373 1372 1371 1370 1370 1369 1368 1367 1366 1365 1364 1363 1362 1361 1359 1358 1357 1355 1353 1352 1350 1348 1347 1346 1346 1345 1345 1344 1344 1343 1342 1341 1340 1339 1338 1337 1336 1334 1333 1332 1332 1332 1332 1332 1332 1332 1330 1329 1328 1328 1328 1329 1329 1330 1330 1329 1328 1328 1328 1328 1329 1329 1328 1328 1328 1328 1328 1328 1329 1329 1331 1332 1332 1333 1335 1336 1337 1339 1340
1381 1379 1377 1376 1374 1373 1372 1371 1370 1369 1368 1367 1367 1366 1366 1365 1364 1363 1362 1361 1359 1358 1357 1356 1354 1352 1350 1348 1347 1346 1344 1343 1342 1342 1342 1341 1341 1340 1339 1338 1337 1336 1335 1334 1333 1332 1332 1331 1330 1330 1331 1331 1330 1330 1328 1327 1327 1327 1327 1327 1328 1328 1328 1328 1328 1327 1328 1328 1328 1328 1328 1328 1328 1328 1328 1328 1328 1329 1330 1331 1332 1333 1334 1336 1337 1338
1379 1378 1376 1375 1373 1372 1371 1370 1368 1367 1366 1365 1365 1364 1364 1363 1362 1362 1361 1359 1358 1357 1356 1355 1353 1352 1350 1348 1346 1345 1343 1341 1340 1339 1339 1338 1338 1338 1337 1337 1336 1335 1334 1333 1332 1331 1331 1330 1329 1329 1329 1329 1329 1328 1328 1327 1326 1326 1325 1326 1327 1327 1327 1327 1327 1327 1327 1328 1328 1328 1328 1328 1328 1328 1328 1327 1327 1328 1328 1329 1330 1331 1332 1333 1335 1337
1378 1377 1375 1374 1372 1371 1369 1368 1367 1366 1364 1363 1362 1362 1362 1361 1360 1359 1359 1358 1357 1356 1355 1353 1352 1351 1349 1347 1346 1344 1342 1340 1339 1337 1337 1337 1336 1336 1336 1335 1334 1333 1332 1332 1331 1330 1329 1328 1328 1327 1327 1327 1327 1326 1326 1326 1326 1326 1325 1325 1326 1326 1326 1326 1326 1326 1327 1327 1327 1328 1328 1328 1328 1328 1327 1327 1327 1327 1327 1328 1329 1330 1331 1332 1333 1335
1377 1376 1374 1373 1371 1370 1368 1367 1366 1364 1363 1362 1361 1360 1359 1359 1358 1358 1357 1356 1356 1355 1353 1352 1351 1349 1348 1347 1345 1344 1342 1341 1339 1337 1336 1336 1335 1334 1334 1333 1332 1332 1331 1330 1329 1328 1327 1327 1326 1326 1325 1325 1325 1324 1324 1325 1325 1325 1325 1325 1325 1324 1324 1325 1325 1325 1326 1326 1327 1327 1327 1327 1327 1327 1327 1327 1327 1327 1327 1327 1327 1328 1330 1331 1332 1334
1376 1375 1373 1372 1370 1369 1367 1366 1365 1363 1362 1361 1359 1358 1357 1357 1357 1356 1355 1355 1354 1353 1352 1351 1350 1348 1347 1345 1344 1343 1342 1340 1339 1337 1336 1335 1334 1333 1332 1332 1331 1330 1329 1328 1327 1327 1326 1325 1324 1324 1323 1323 1323 1323 1322 1322 1323 1323 1324 1324 1323 1323 1323 1323 1324 1324 1325 1325 1326 1326 1327 1327 1327 1327 1327 1327 1326 1326 1327 1327 1327 1327 1328 1330 1331 1332
1375 1373 1372 1371 1369 1368 1367 1365 1364 1362 1361 1360 1359 1357 1356 1355 1355 1354 1354 1353 1352 1352 1351 1350 1349 1347 1346 1344 1343 1342 1341 1340 1338 1337 1336 1335 1334 1333 1332 1331 1330 1329 1327 1326 1325 1325 1324 1323 1322 1322 1322 1322 1322 1322 1321 1321 1321 1322 1322 1322 1322 1322 1322 1322 1323 1323 1324 1324 1325 1325 1326 1327 1327 1327 1327 1326 1326 1326 1326 1326 1327 1327 1327 1328 1330 1332
1373 1372 1371 1370 1368 1367 1366 1364 1363 1362 1361 1360 1358 1357 1356 1354 1353 1352 1352 1352 1351 1351 1350 1349 1348 1347 1345 1344 1342 1341 1340 1339 1338 1337 1336 1335 1334 1333 1332 1331 1330 1329 1327 1326 1325 1323 1322 1322 1321 1320 1320 1320 1321 1321 1321 1321 1321 1321 1321 1321 1321 1321 1321 1321 1322 1322 1323 1323 1324 1324 1325 1326 1326 1326 1326 1326 1326 1326 1326 1326 1326 1327 1327 1328 1329 1330